STARLETTE 1 7646U 75010A 25189.04990941 -.00000145 00000-0 -38783-6 0 9994 2 7646 49.8252 22.9678 0205705 6.1579 354.1774 13.82344054546927 LAGEOS 1 1 8820U 76039A 25189.11424728 .00000019 00000-0 00000+0 0 9996 2 8820 109.8557 61.4927 0044614 15.8140 145.8410 6.38665055891579 EGS (AJISAI) 1 16908U 86061A 25188.94816486 -.00000117 00000-0 -14111-3 0 9997 2 16908 50.0083 125.9199 0011406 24.1159 83.4988 12.44512667437521 LAGEOS 2 1 22195U 92070B 25188.86977257 -.00000009 00000-0 00000-0 0 9992 2 22195 52.6457 124.2448 0137421 36.8446 354.1713 6.47293877773132 STELLA 1 22824U 93061B 25188.91248404 -.00000036 00000-0 39028-5 0 9990 2 22824 98.8232 245.9845 0006874 150.0180 24.8499 14.27456894655652 LARES 1 38077U 12006A 25188.89810629 -.00000046 00000-0 -46524-4 0 9998 2 38077 69.4891 160.3241 0008982 350.5257 9.5599 12.54932144613872